Simultaneous Nadir Overpasses (SNOs) Predictions

Prediction of SNOs between AQUA and METOP-C Satellite Orbit:

Table of predicted SNOs for the next 14.0 days since TLE Epoch: 2/7/2020
Index Date (AQUA) Time (AQUA) Lat,Lon (AQUA) SZA (AQUA ) Date (METOP-C) Time (METOP-C) Lat,Lon (METOP-C) SZA (METOP-C ) Distance(km) Time Diff (sec)
1 02/09/2020 17:22:06 73.75, -86.16 88.54 02/09/2020 17:21:40 73.72, -86.13 88.52 2.88 26
2 02/09/2020 18:11:33 -73.80, 81.38 91.43 02/09/2020 18:12:21 -73.80, 81.37 91.44 0.31 48
3 02/12/2020 12:56:23 73.73, -19.68 87.59 02/12/2020 12:55:56 73.72, -19.70 87.59 1.17 27
4 02/12/2020 13:45:51 -73.82, 147.76 92.32 02/12/2020 13:46:37 -73.79, 147.80 92.36 3.34 46
5 02/15/2020 08:30:40 73.71, 46.79 86.62 02/15/2020 08:30:12 73.71, 46.73 86.64 2.15 28
6 02/15/2020 09:20:08 -73.80,-145.76 93.30 02/15/2020 09:20:53 -73.79,-145.77 93.31 1.00 45
7 02/18/2020 04:04:56 73.69, 113.26 85.63 02/18/2020 04:04:27 73.71, 113.16 85.66 3.48 29
8 02/18/2020 04:54:24 -73.78, -79.29 94.29 02/18/2020 04:55:08 -73.78, -79.34 94.29 1.81 44
9 02/20/2020 23:39:14 73.74, 179.60 84.68 02/20/2020 23:38:43 73.70, 179.59 84.65 3.60 31
10 02/21/2020 00:28:41 -73.76, -12.82 95.31 02/21/2020 00:29:24 -73.78, -12.91 95.30 3.18 43




NCC Satellite Simultaneous Nadir Overpasses (SNOs) Prediction Service
